When you browse on this site, cookies collect data to enhance your experience and personalize the content and advertising you see.
Visit our Privacy Policy to learn more. By continuing to use the site, you agree to this use of cookies and data.
  • en France
  • Liste des pays
  • À 7 jours
  • Température de l'eau
  • Carte météo
  • Widgets météo
  • user-avatar
    Se connecter

    Météo par heure à Saarbrücken

    Ce jour, 7 Décembre, Samedi

    Heure Température Précipitation Vent Pression Humidité
    00:00 +4°C° 0 mm 7 m/s 737 mmHg 93%
    01:00 +4°C° 0.1 mm 7 m/s 737 mmHg 93%
    02:00 +5°C° 0.1 mm 6 m/s 737 mmHg 93%
    03:00 +5°C° 0.1 mm 6 m/s 738 mmHg 94%
    04:00 +5°C° 0 mm 6 m/s 738 mmHg 94%
    05:00 +5°C° 0 mm 5 m/s 739 mmHg 95%
    06:00 +6°C° 0 mm 5 m/s 739 mmHg 96%
    07:00 +6°C° 0.1 mm 5 m/s 739 mmHg 96%
    08:00 +6°C° 0.1 mm 5 m/s 740 mmHg 96%
    09:00 +6°C° 0.1 mm 5 m/s 740 mmHg 97%
    10:00 +6°C° 0 mm 5 m/s 740 mmHg 95%
    11:00 +6°C° 0 mm 5 m/s 740 mmHg 93%
    12:00 +6°C° 0 mm 4 m/s 741 mmHg 91%
    13:00 +6°C° 0 mm 4 m/s 741 mmHg 90%
    14:00 +6°C° 0 mm 4 m/s 740 mmHg 89%
    15:00 +6°C° 0 mm 4 m/s 740 mmHg 88%
    16:00 +6°C° 0 mm 4 m/s 741 mmHg 90%
    17:00 +5°C° 0 mm 4 m/s 741 mmHg 92%
    18:00 +5°C° 0 mm 4 m/s 741 mmHg 93%
    19:00 +5°C° 0 mm 4 m/s 741 mmHg 93%
    20:00 +5°C° 0 mm 4 m/s 741 mmHg 93%
    21:00 +5°C° 0 mm 4 m/s 741 mmHg 93%
    22:00 +5°C° 0 mm 4 m/s 741 mmHg 93%
    23:00 +5°C° 0 mm 4 m/s 740 mmHg 92%

    Demain, 8 Décembre, Dimanche

    Heure Température Précipitation Vent Pression Humidité
    00:00 +5°C° 0 mm 4 m/s 740 mmHg 92%
    01:00 +5°C° 0 mm 5 m/s 739 mmHg 92%
    02:00 +5°C° 0 mm 5 m/s 739 mmHg 93%
    03:00 +3°C° 0 mm 5 m/s 738 mmHg 93%
    04:00 +4°C° 0 mm 6 m/s 738 mmHg 91%
    05:00 +5°C° 0 mm 6 m/s 737 mmHg 89%
    06:00 +5°C° 0 mm 7 m/s 737 mmHg 88%
    07:00 +6°C° 0 mm 7 m/s 737 mmHg 88%
    08:00 +6°C° 0 mm 7 m/s 736 mmHg 88%
    09:00 +6°C° 0 mm 7 m/s 736 mmHg 89%
    10:00 +7°C° 1.3 mm 8 m/s 735 mmHg 90%
    11:00 +7°C° 1.3 mm 8 m/s 735 mmHg 91%
    12:00 +7°C° 1.3 mm 8 m/s 734 mmHg 91%
    13:00 +7°C° 0.7 mm 8 m/s 734 mmHg 91%
    14:00 +9°C° 0.7 mm 8 m/s 733 mmHg 92%
    15:00 +9°C° 0.7 mm 8 m/s 733 mmHg 92%
    16:00 +9°C° 0.7 mm 7 m/s 733 mmHg 91%
    17:00 +9°C° 0.7 mm 7 m/s 733 mmHg 90%
    18:00 +8°C° 0.7 mm 6 m/s 732 mmHg 90%
    19:00 +8°C° 0.2 mm 6 m/s 732 mmHg 88%
    20:00 +7°C° 0.2 mm 6 m/s 732 mmHg 86%
    21:00 +5°C° 0.2 mm 6 m/s 731 mmHg 84%
    22:00 +5°C° 0.1 mm 7 m/s 731 mmHg 84%
    23:00 +5°C° 0.1 mm 8 m/s 731 mmHg 83%

    Après-demain, 9 Décembre, Lundi

    Heure Température Précipitation Vent Pression Humidité
    00:00 +4°C° 0.1 mm 8 m/s 731 mmHg 83%
    01:00 +3°C° 0.2 mm 9 m/s 731 mmHg 82%
    02:00 +3°C° 0.2 mm 9 m/s 731 mmHg 81%
    03:00 +3°C° 0.2 mm 9 m/s 730 mmHg 80%
    04:00 +3°C° 0.1 mm 9 m/s 730 mmHg 80%
    05:00 +3°C° 0.1 mm 9 m/s 730 mmHg 80%
    06:00 +3°C° 0.1 mm 9 m/s 729 mmHg 80%
    07:00 +3°C° 0.3 mm 9 m/s 729 mmHg 82%
    08:00 +3°C° 0.3 mm 9 m/s 729 mmHg 85%
    09:00 +2°C° 0.3 mm 9 m/s 729 mmHg 88%
    10:00 +3°C° 0.4 mm 9 m/s 730 mmHg 86%
    11:00 +4°C° 0.4 mm 8 m/s 731 mmHg 84%
    12:00 +4°C° 0.4 mm 8 m/s 731 mmHg 83%
    13:00 +2°C° 0.1 mm 8 m/s 732 mmHg 81%
    14:00 +2°C° 0.1 mm 8 m/s 732 mmHg 80%
    15:00 +2°C° 0.1 mm 8 m/s 733 mmHg 79%
    16:00 +1°C° 0.2 mm 8 m/s 734 mmHg 82%
    17:00 +1°C° 0.2 mm 8 m/s 735 mmHg 86%
    18:00 +1°C° 0.2 mm 8 m/s 736 mmHg 89%
    19:00 +2°C° 0.4 mm 7 m/s 737 mmHg 90%
    20:00 +2°C° 0.4 mm 7 m/s 738 mmHg 90%
    21:00 +2°C° 0.4 mm 6 m/s 739 mmHg 91%
    22:00 +2°C° 0.1 mm 5 m/s 740 mmHg 88%
    23:00 +1°C° 0.1 mm 4 m/s 742 mmHg 86%

    10 Décembre, Mardi

    Heure Température Précipitation Vent Pression Humidité
    00:00 +2°C° 0.1 mm 3 m/s 743 mmHg 83%
    01:00 +1°C° 0 mm 3 m/s 743 mmHg 85%
    02:00 +1°C° 0 mm 3 m/s 744 mmHg 88%
    03:00 0°C° 0 mm 3 m/s 745 mmHg 90%
    04:00 0°C° 0 mm 3 m/s 746 mmHg 92%
    05:00 -1°C° 0 mm 2 m/s 746 mmHg 93%
    06:00 -1°C° 0 mm 2 m/s 747 mmHg 94%
    07:00 +1°C° 0 mm 2 m/s 747 mmHg 93%
    08:00 +1°C° 0 mm 2 m/s 747 mmHg 91%
    09:00 +1°C° 0 mm 2 m/s 748 mmHg 90%
    10:00 +2°C° 0 mm 2 m/s 747 mmHg 87%
    11:00 +2°C° 0 mm 3 m/s 747 mmHg 85%
    12:00 +3°C° 0 mm 3 m/s 747 mmHg 82%
    13:00 +2°C° 0 mm 3 m/s 746 mmHg 85%
    14:00 +3°C° 0 mm 2 m/s 745 mmHg 87%
    15:00 +2°C° 0 mm 2 m/s 745 mmHg 89%
    16:00 +2°C° 0 mm 2 m/s 744 mmHg 90%
    17:00 +1°C° 0 mm 2 m/s 744 mmHg 91%
    18:00 +1°C° 0 mm 1 m/s 743 mmHg 92%
    19:00 -1°C° 0 mm 2 m/s 743 mmHg 91%
    20:00 -1°C° 0 mm 2 m/s 742 mmHg 90%
    21:00 -1°C° 0 mm 2 m/s 742 mmHg 90%
    22:00 +1°C° 0 mm 2 m/s 741 mmHg 87%
    23:00 +1°C° 0 mm 2 m/s 741 mmHg 85%

    11 Décembre, Mercredi

    Heure Température Précipitation Vent Pression Humidité
    00:00 +1°C° 0 mm 2 m/s 740 mmHg 82%
    01:00 +1°C° 0.3 mm 2 m/s 740 mmHg 83%
    02:00 +1°C° 0.3 mm 3 m/s 739 mmHg 84%
    03:00 +1°C° 0.3 mm 3 m/s 739 mmHg 85%
    04:00 +1°C° 0.5 mm 3 m/s 739 mmHg 86%
    05:00 +1°C° 0.5 mm 3 m/s 738 mmHg 88%
    06:00 +1°C° 0.5 mm 3 m/s 738 mmHg 89%
    07:00 +1°C° 0.8 mm 3 m/s 738 mmHg 91%
    08:00 +1°C° 0.8 mm 3 m/s 738 mmHg 93%
    09:00 +1°C° 0.8 mm 3 m/s 738 mmHg 95%
    10:00 +2°C° 0.7 mm 3 m/s 738 mmHg 95%
    11:00 +2°C° 0.7 mm 3 m/s 737 mmHg 96%
    12:00 +2°C° 0.7 mm 3 m/s 737 mmHg 96%
    13:00 +3°C° 0.1 mm 3 m/s 737 mmHg 95%
    14:00 +3°C° 0.1 mm 3 m/s 737 mmHg 95%
    15:00 +3°C° 0.1 mm 3 m/s 737 mmHg 94%
    16:00 +2°C° 0 mm 3 m/s 737 mmHg 94%
    17:00 +2°C° 0 mm 3 m/s 737 mmHg 94%
    18:00 +1°C° 0 mm 3 m/s 737 mmHg 94%
    19:00 0°C° 0 mm 4 m/s 737 mmHg 94%
    20:00 0°C° 0 mm 4 m/s 736 mmHg 93%
    21:00 -1°C° 0 mm 4 m/s 736 mmHg 93%
    22:00 0°C° 0.7 mm 4 m/s 735 mmHg 94%
    23:00 0°C° 0.7 mm 5 m/s 735 mmHg 95%

    12 Décembre, Jeudi

    Heure Température Précipitation Vent Pression Humidité
    00:00 -1°C° 0.7 mm 6 m/s 734 mmHg 97%
    01:00 -1°C° 0.3 mm 6 m/s 734 mmHg 95%
    02:00 0°C° 0.3 mm 5 m/s 734 mmHg 94%
    03:00 +1°C° 0.3 mm 5 m/s 735 mmHg 92%
    04:00 +1°C° 0.1 mm 5 m/s 735 mmHg 91%
    05:00 +1°C° 0.1 mm 5 m/s 736 mmHg 90%
    06:00 +1°C° 0.1 mm 5 m/s 736 mmHg 89%
    07:00 0°C° 0 mm 5 m/s 736 mmHg 89%
    08:00 0°C° 0 mm 5 m/s 737 mmHg 90%
    09:00 0°C° 0 mm 5 m/s 737 mmHg 90%
    10:00 -1°C° 0 mm 6 m/s 737 mmHg 89%
    11:00 +1°C° 0 mm 6 m/s 737 mmHg 88%
    12:00 +1°C° 0 mm 6 m/s 736 mmHg 87%
    13:00 +1°C° 0.1 mm 6 m/s 736 mmHg 90%
    14:00 0°C° 0.1 mm 7 m/s 735 mmHg 93%
    15:00 0°C° 0.1 mm 7 m/s 735 mmHg 95%
    16:00 0°C° 0.5 mm 7 m/s 734 mmHg 95%
    17:00 +2°C° 0.5 mm 7 m/s 733 mmHg 94%
    18:00 +2°C° 0.5 mm 7 m/s 732 mmHg 94%
    19:00 +2°C° 0.3 mm 7 m/s 732 mmHg 93%
    20:00 +1°C° 0.3 mm 8 m/s 731 mmHg 92%
    21:00 +2°C° 0.3 mm 8 m/s 730 mmHg 91%
    22:00 +2°C° 0.7 mm 8 m/s 729 mmHg 90%
    23:00 +2°C° 0.7 mm 8 m/s 728 mmHg 89%
    Voir plus